TimeEDT,TemperatureF,Dew PointF,Humidity,Sea Level PressureIn,VisibilityMPH,Wind Direction,Wind SpeedMPH,Gust SpeedMPH,PrecipitationIn,Events,Conditions,WindDirDegrees,DateUTC
12:02 AM,68.0,68.0,100,29.75,1.5,Calm,Calm,-,N/A,,Mostly Cloudy,0,2013-06-26 04:02:00
12:08 AM,68.0,68.0,100,29.75,3.0,Calm,Calm,-,N/A,,Mostly Cloudy,0,2013-06-26 04:08:00
12:51 AM,69.1,69.1,100,29.74,5.0,Calm,Calm,-,N/A,,Mostly Cloudy,0,2013-06-26 04:51:00
1:32 AM,69.8,69.8,100,29.75,5.0,Calm,Calm,-,0.00,,Scattered Clouds,0,2013-06-26 05:32:00
1:51 AM,68.0,68.0,100,29.74,7.0,Calm,Calm,-,0.00,,Clear,0,2013-06-26 05:51:00
2:51 AM,68.0,68.0,100,29.73,4.0,Calm,Calm,-,N/A,,Clear,0,2013-06-26 06:51:00
3:51 AM,66.0,66.0,100,29.73,6.0,Calm,Calm,-,N/A,,Clear,0,2013-06-26 07:51:00
4:51 AM,66.0,66.0,100,29.73,5.0,Calm,Calm,-,N/A,,Clear,0,2013-06-26 08:51:00
5:51 AM,66.9,66.9,100,29.77,4.0,SSW,5.8,-,N/A,,Partly Cloudy,210,2013-06-26 09:51:00
6:51 AM,68.0,66.9,96,29.76,7.0,Calm,Calm,-,N/A,,Clear,0,2013-06-26 10:51:00
7:51 AM,70.0,66.9,90,29.77,10.0,WNW,3.5,-,N/A,,Mostly Cloudy,300,2013-06-26 11:51:00
8:51 AM,71.1,68.0,90,29.77,8.0,NNE,3.5,-,N/A,,Overcast,30,2013-06-26 12:51:00
9:51 AM,71.1,68.0,90,29.78,9.0,Calm,Calm,-,N/A,,Overcast,0,2013-06-26 13:51:00
10:51 AM,72.0,66.9,84,29.79,10.0,Calm,Calm,-,N/A,,Overcast,0,2013-06-26 14:51:00
11:51 AM,73.9,68.0,82,29.78,10.0,Calm,Calm,-,N/A,,Overcast,0,2013-06-26 15:51:00
12:51 PM,78.1,69.1,74,29.77,10.0,Calm,Calm,-,N/A,,Mostly Cloudy,0,2013-06-26 16:51:00
1:51 PM,77.0,69.1,76,29.77,10.0,Calm,Calm,-,0.00,Rain,Light Rain,0,2013-06-26 17:51:00
2:31 PM,73.4,71.6,94,29.78,2.0,SSW,4.6,-,0.03,Rain,Rain,200,2013-06-26 18:31:00
2:40 PM,73.4,71.6,94,29.78,3.0,South,8.1,-,0.04,Rain,Light Rain,180,2013-06-26 18:40:00
2:46 PM,73.4,71.6,94,29.77,1.8,South,5.8,-,0.06,Rain,Rain,190,2013-06-26 18:46:00
2:47 PM,73.0,72.0,96,29.77,1.8,South,5.8,-,0.07,Rain,Rain,190,2013-06-26 18:47:00
3:10 PM,71.6,71.6,100,29.79,2.5,WNW,9.2,-,0.06,Rain,Light Rain,300,2013-06-26 19:10:00
3:13 PM,71.6,69.8,94,29.79,3.0,WNW,12.7,-,0.06,Rain-Thunderstorm,Light Rain,300,2013-06-26 19:13:00
3:20 PM,69.8,66.2,88,29.80,3.0,NNW,10.4,17.3,0.07,Rain-Thunderstorm,Rain,340,2013-06-26 19:20:00
3:25 PM,68.0,66.2,94,29.80,1.8,North,9.2,17.3,0.11,Rain-Thunderstorm,Heavy Rain,350,2013-06-26 19:25:00
3:30 PM,68.0,66.2,94,29.80,1.2,North,6.9,17.3,0.16,Rain,Heavy Rain,350,2013-06-26 19:30:00
3:38 PM,68.0,66.2,94,29.80,2.0,North,3.5,-,0.21,Rain,Rain,360,2013-06-26 19:38:00
3:42 PM,68.0,66.2,94,29.80,3.0,Variable,3.5,-,0.22,Rain,Light Rain,0,2013-06-26 19:42:00
3:47 PM,68.0,66.2,94,29.80,1.8,WNW,4.6,-,0.24,Rain,Heavy Rain,300,2013-06-26 19:47:00
3:51 PM,66.9,66.9,100,29.81,1.2,NNW,3.5,-,0.27,Rain,Heavy Rain,340,2013-06-26 19:51:00
4:14 PM,66.2,66.2,100,29.81,0.8,North,5.8,-,0.29,Rain,Heavy Rain,360,2013-06-26 20:14:00
4:22 PM,66.2,66.2,100,29.81,1.5,NNW,8.1,-,0.35,Rain,Heavy Rain,330,2013-06-26 20:22:00
4:49 PM,66.2,66.2,100,29.80,1.0,WNW,5.8,-,0.51,Rain,Heavy Rain,300,2013-06-26 20:49:00
4:51 PM,66.9,66.9,100,29.80,1.0,NW,3.5,-,0.52,Rain,Heavy Rain,310,2013-06-26 20:51:00
4:59 PM,68.0,66.2,94,29.80,2.0,NW,4.6,-,0.03,Rain,Light Rain,320,2013-06-26 20:59:00
5:08 PM,68.0,66.2,94,29.79,3.0,Calm,Calm,-,0.05,Rain,Light Rain,0,2013-06-26 21:08:00
5:46 PM,68.0,68.0,100,29.78,6.0,South,4.6,-,0.06,Rain,Light Rain,190,2013-06-26 21:46:00
5:51 PM,68.0,68.0,100,29.78,6.0,South,4.6,-,0.06,Rain,Light Rain,180,2013-06-26 21:51:00
6:51 PM,71.1,68.0,90,29.80,10.0,North,4.6,-,0.00,,Mostly Cloudy,360,2013-06-26 22:51:00
7:12 PM,69.8,68.0,94,29.82,10.0,North,3.5,-,N/A,,Mostly Cloudy,10,2013-06-26 23:12:00
7:25 PM,71.6,68.0,88,29.82,10.0,Variable,4.6,-,N/A,,Scattered Clouds,0,2013-06-26 23:25:00
7:51 PM,69.1,68.0,96,29.83,10.0,East,3.5,-,N/A,,Clear,90,2013-06-26 23:51:00
8:51 PM,66.9,66.9,100,29.82,6.0,Calm,Calm,-,N/A,,Clear,0,2013-06-27 00:51:00
9:11 PM,64.4,64.4,100,29.84,1.0,Calm,Calm,-,N/A,,Mist,0,2013-06-27 01:11:00
9:18 PM,64.4,64.4,100,29.84,0.5,Calm,Calm,-,N/A,Fog,Fog,0,2013-06-27 01:18:00
9:24 PM,66.2,66.2,100,29.84,1.2,Calm,Calm,-,N/A,,Partly Cloudy,0,2013-06-27 01:24:00
9:26 PM,64.4,64.4,100,29.84,2.5,Calm,Calm,-,N/A,,Partly Cloudy,0,2013-06-27 01:26:00
9:33 PM,66.2,64.4,94,29.84,7.0,Calm,Calm,-,N/A,,Partly Cloudy,0,2013-06-27 01:33:00
9:51 PM,66.9,66.0,97,29.85,9.0,SE,3.5,-,N/A,,Scattered Clouds,130,2013-06-27 01:51:00
10:07 PM,66.2,66.2,100,29.84,7.0,ESE,3.5,-,N/A,,Mostly Cloudy,120,2013-06-27 02:07:00
10:28 PM,66.2,66.2,100,29.86,4.0,East,8.1,-,N/A,,Overcast,90,2013-06-27 02:28:00
10:51 PM,64.0,64.0,100,29.87,5.0,East,5.8,-,N/A,,Overcast,100,2013-06-27 02:51:00
11:44 PM,64.4,64.4,100,29.85,2.5,Calm,Calm,-,N/A,,Overcast,0,2013-06-27 03:44:00
11:51 PM,64.0,64.0,100,29.86,3.0,Calm,Calm,-,N/A,,Overcast,0,2013-06-27 03:51:00